Precipitable_Water
0.38 0.27 0.23 0.22 0.29 0.39 0.47 0.53 0.60 0.76 0.86 0.90 0.94 0.95 0.96 0.98 1.01 1.18 1.25 1.39 1.48 1.28 1.22 1.18 1.18 1.22 1.24 1.26 1.30 1.30 1.23 1.06 0.98 0.92 0.92 0.93 0.93 0.94 0.94 0.96 1.00 1.01 1.01 1.09 1.19 1.28 1.35 1.42 1.45 1.51 1.54 1.51 1.57 1.58 1.57 1.56 1.53 1.49 1.50 1.54 1.52 1.62 1.67 1.61 1.55 1.50 1.44 1.39 1.40 1.45 1.41 1.35 1.37 1.35 1.38 1.38 1.42 1.46 1.49 1.56 1.60 1.64 1.69 1.71 1.67 1.62
0.38 0.26 0.23 0.24 0.27 0.39 0.52 0.66 0.64 0.80 0.84 0.84 0.87 0.88 0.94 0.98 0.91 1.12 1.18 1.39 1.45 1.25 1.20 1.26 1.19 1.20 1.27 1.30 1.36 1.36 1.21 1.02 0.99 0.94 0.92 0.92 0.94 0.96 0.93 0.93 0.98 1.02 1.10 1.16 1.19 1.27 1.35 1.40 1.44 1.48 1.51 1.49 1.47 1.51 1.53 1.50 1.50 1.48 1.50 1.48 1.51 1.57 1.60 1.60 1.56 1.51 1.45 1.41 1.38 1.38 1.41 1.43 1.38 1.37 1.32 1.28 1.37 1.43 1.45 1.46 1.53 1.57 1.66 1.67 1.64 1.62
0.29 0.23 0.23 0.25 0.27 0.33 0.57 0.62 0.62 0.74 0.77 0.83 0.81 0.84 0.86 0.94 1.05 1.17 1.22 1.38 1.39 1.27 1.16 1.25 1.13 1.18 1.26 1.31 1.38 1.34 1.26 1.11 1.06 1.02 0.97 0.94 0.94 0.96 0.94 0.96 0.97 1.03 1.05 1.15 1.21 1.25 1.32 1.37 1.41 1.44 1.49 1.48 1.51 1.50 1.50 1.53 1.49 1.47 1.46 1.48 1.50 1.52 1.53 1.56 1.57 1.53 1.46 1.47 1.49 1.48 1.48 1.49 1.42 1.47 1.44 1.39 1.39 1.43 1.40 1.40 1.43 1.47 1.54 1.60 1.60 1.60
0.23 0.21 0.23 0.26 0.27 0.27 0.46 0.54 0.57 0.72 0.77 0.78 0.80 0.75 0.71 0.92 0.87 0.80 1.09 1.23 1.32 1.26 1.17 1.22 1.12 1.20 1.29 1.36 1.37 1.39 1.35 1.19 1.15 1.10 1.07 1.03 0.96 0.97 0.95 0.95 0.96 1.00 1.05 1.10 1.18 1.21 1.29 1.35 1.36 1.39 1.44 1.49 1.52 1.51 1.52 1.49 1.46 1.46 1.46 1.47 1.47 1.48 1.53 1.54 1.55 1.55 1.56 1.57 1.63 1.64 1.58 1.55 1.50 1.43 1.49 1.48 1.47 1.43 1.40 1.34 1.38 1.43 1.46 1.48 1.54 1.56
0.22 0.22 0.24 0.25 0.26 0.27 0.39 0.43 0.46 0.65 0.66 0.78 0.76 0.72 0.75 0.83 0.90 0.88 0.96 1.17 1.31 1.35 1.37 1.24 1.12 1.14 1.20 1.19 1.25 1.36 1.42 1.27 1.21 1.13 1.11 1.11 1.07 1.07 1.04 0.99 1.02 1.01 1.06 1.11 1.17 1.22 1.26 1.28 1.31 1.35 1.42 1.51 1.50 1.50 1.51 1.47 1.44 1.45 1.45 1.47 1.46 1.45 1.48 1.51 1.54 1.55 1.57 1.60 1.63 1.67 1.63 1.60 1.53 1.52 1.47 1.42 1.38 1.41 1.39 1.35 1.36 1.42 1.51 1.49 1.49 1.52
0.23 0.27 0.30 0.25 0.27 0.34 0.40 0.37 0.39 0.57 0.60 0.71 0.80 0.74 0.77 0.87 0.90 0.94 1.04 1.06 1.02 1.04 1.26 1.14 0.88 0.93 1.13 1.18 1.21 1.34 1.36 1.21 1.26 1.12 1.06 1.09 1.08 1.07 1.02 0.99 1.05 1.08 1.13 1.14 1.16 1.19 1.24 1.26 1.32 1.38 1.42 1.44 1.51 1.50 1.54 1.53 1.50 1.49 1.48 1.49 1.48 1.47 1.47 1.46 1.53 1.58 1.56 1.54 1.55 1.54 1.49 1.39 1.34 1.27 1.27 1.23 1.23 1.28 1.30 1.30 1.43 1.48 1.51 1.51 1.51 1.52
0.26 0.28 0.27 0.24 0.33 0.36 0.39 0.34 0.48 0.62 0.63 0.64 0.70 0.85 0.87 0.93 0.94 0.91 0.94 0.98 0.81 0.77 1.09 1.28 0.88 0.82 1.10 1.11 1.20 1.29 1.29 1.21 1.25 1.16 1.09 1.09 1.10 1.06 1.05 1.02 1.07 1.07 1.13 1.19 1.23 1.24 1.25 1.27 1.30 1.34 1.38 1.44 1.49 1.53 1.59 1.59 1.55 1.53 1.52 1.51 1.49 1.46 1.48 1.50 1.53 1.59 1.58 1.57 1.56 1.54 1.49 1.45 1.38 1.28 1.28 1.35 1.38 1.35 1.36 1.41 1.39 1.44 1.48 1.50 1.53 1.56
0.26 0.26 0.26 0.25 0.26 0.37 0.35 0.32 0.39 0.61 0.61 0.60 0.82 0.89 0.94 0.93 0.89 0.88 0.90 0.93 0.89 1.11 1.17 1.20 1.09 0.86 0.86 1.05 1.25 1.29 1.25 1.20 1.19 1.17 1.12 1.13 1.12 1.08 1.08 1.07 1.10 1.13 1.15 1.17 1.21 1.23 1.26 1.28 1.29 1.28 1.36 1.44 1.50 1.56 1.60 1.60 1.60 1.55 1.53 1.51 1.48 1.47 1.50 1.55 1.59 1.57 1.54 1.54 1.56 1.52 1.51 1.49 1.45 1.38 1.32 1.35 1.39 1.43 1.42 1.37 1.39 1.40 1.41 1.47 1.52 1.55
0.25 0.23 0.24 0.23 0.25 0.30 0.30 0.33 0.36 0.54 0.58 0.70 0.87 0.91 0.90 0.95 0.95 0.96 0.93 0.91 0.95 0.92 0.87 1.03 1.14 0.88 0.85 1.02 1.23 1.29 1.17 1.17 1.15 1.15 1.13 1.13 1.14 1.10 1.10 1.11 1.13 1.16 1.19 1.19 1.20 1.22 1.24 1.27 1.30 1.33 1.35 1.45 1.53 1.56 1.55 1.59 1.63 1.62 1.59 1.55 1.53 1.47 1.52 1.57 1.63 1.61 1.57 1.55 1.56 1.55 1.50 1.49 1.53 1.49 1.45 1.46 1.47 1.43 1.42 1.35 1.39 1.38 1.43 1.47 1.53 1.57
0.30 0.25 0.24 0.26 0.27 0.27 0.32 0.40 0.46 0.70 0.68 0.91 0.96 1.03 1.04 1.04 1.01 0.99 0.92 0.90 0.92 0.84 0.75 0.89 1.05 0.81 0.82 1.01 1.08 1.21 1.17 1.13 1.14 1.17 1.18 1.16 1.15 1.12 1.12 1.13 1.15 1.19 1.21 1.22 1.24 1.26 1.27 1.30 1.33 1.37 1.41 1.43 1.50 1.56 1.60 1.64 1.68 1.67 1.64 1.57 1.53 1.50 1.54 1.58 1.63 1.63 1.59 1.60 1.58 1.52 1.49 1.47 1.50 1.54 1.51 1.48 1.42 1.41 1.40 1.37 1.37 1.37 1.44 1.48 1.52 1.57
0.31 0.34 0.29 0.25 0.24 0.25 0.36 0.56 0.69 0.75 0.81 1.02 0.99 0.91 0.93 0.94 0.93 0.97 0.95 0.93 0.83 0.68 0.79 0.96 1.03 0.91 0.75 0.92 1.01 1.05 1.08 1.19 1.20 1.20 1.24 1.22 1.19 1.17 1.18 1.16 1.16 1.18 1.20 1.21 1.24 1.28 1.30 1.36 1.37 1.42 1.39 1.41 1.49 1.56 1.59 1.63 1.65 1.68 1.66 1.61 1.54 1.56 1.58 1.58 1.58 1.58 1.54 1.56 1.54 1.48 1.48 1.45 1.44 1.51 1.50 1.41 1.39 1.41 1.38 1.35 1.38 1.39 1.44 1.52 1.50 1.54
0.29 0.30 0.27 0.28 0.29 0.31 0.57 0.64 0.82 0.92 0.89 0.88 0.86 0.82 0.81 0.79 0.89 0.85 0.84 0.90 0.65 0.62 0.84 1.01 1.01 1.01 0.72 0.87 1.05 1.17 1.29 1.30 1.27 1.18 1.21 1.20 1.18 1.17 1.18 1.19 1.19 1.21 1.21 1.22 1.24 1.26 1.32 1.36 1.38 1.41 1.38 1.41 1.45 1.50 1.52 1.60 1.63 1.65 1.66 1.66 1.57 1.57 1.58 1.58 1.57 1.55 1.53 1.55 1.52 1.49 1.46 1.44 1.46 1.49 1.49 1.43 1.37 1.40 1.37 1.38 1.38 1.44 1.45 1.49 1.54 1.54
0.26 0.27 0.30 0.34 0.48 0.55 0.58 0.64 0.78 0.90 0.95 0.81 0.80 0.76 0.56 0.57 0.61 0.51 0.66 0.55 0.60 0.62 0.86 1.02 1.05 0.95 0.88 1.00 1.12 1.20 1.21 1.26 1.34 1.30 1.26 1.25 1.21 1.20 1.21 1.22 1.23 1.25 1.24 1.23 1.23 1.26 1.29 1.32 1.35 1.35 1.38 1.40 1.41 1.43 1.47 1.54 1.58 1.62 1.62 1.64 1.59 1.56 1.58 1.56 1.59 1.53 1.50 1.52 1.52 1.50 1.48 1.46 1.48 1.49 1.50 1.49 1.47 1.47 1.43 1.43 1.41 1.42 1.40 1.46 1.49 1.52
0.24 0.29 0.30 0.37 0.50 0.71 0.61 0.56 0.71 0.70 0.83 0.73 0.64 0.61 0.49 0.47 0.45 0.40 0.52 0.63 0.64 0.77 0.97 0.94 1.07 0.88 1.04 1.08 1.20 1.20 1.27 1.29 1.36 1.37 1.37 1.33 1.27 1.23 1.23 1.26 1.26 1.28 1.29 1.26 1.26 1.27 1.27 1.30 1.35 1.37 1.38 1.39 1.40 1.44 1.47 1.52 1.52 1.56 1.56 1.59 1.60 1.59 1.60 1.57 1.57 1.56 1.51 1.50 1.54 1.58 1.55 1.50 1.52 1.51 1.52 1.51 1.51 1.53 1.52 1.51 1.46 1.45 1.43 1.41 1.44 1.49
0.22 0.24 0.27 0.35 0.40 0.73 0.60 0.55 0.62 0.64 0.72 0.65 0.72 0.63 0.54 0.48 0.41 0.37 0.48 0.45 0.52 0.64 0.81 1.03 0.85 0.78 0.81 0.90 1.26 1.28 1.34 1.39 1.40 1.39 1.42 1.43 1.43 1.37 1.34 1.31 1.28 1.28 1.32 1.31 1.29 1.28 1.27 1.30 1.35 1.39 1.39 1.41 1.42 1.45 1.47 1.52 1.52 1.52 1.50 1.51 1.54 1.59 1.61 1.60 1.55 1.53 1.49 1.51 1.54 1.58 1.61 1.57 1.56 1.57 1.55 1.56 1.58 1.58 1.56 1.56 1.53 1.52 1.53 1.48 1.46 1.49
0.28 0.27 0.37 0.40 0.45 0.60 0.59 0.66 0.70 0.67 0.69 0.74 0.75 0.73 0.60 0.49 0.59 0.45 0.58 0.59 0.61 0.64 0.68 0.81 0.79 0.93 0.91 1.26 1.34 1.39 1.38 1.37 1.42 1.37 1.39 1.43 1.44 1.42 1.33 1.29 1.25 1.25 1.31 1.32 1.30 1.31 1.31 1.33 1.36 1.41 1.44 1.44 1.45 1.49 1.51 1.52 1.52 1.48 1.47 1.47 1.50 1.53 1.60 1.62 1.59 1.54 1.49 1.52 1.55 1.57 1.59 1.60 1.59 1.58 1.57 1.58 1.63 1.61 1.59 1.58 1.55 1.53 1.53 1.53 1.56 1.56
0.32 0.27 0.38 0.42 0.44 0.44 0.61 0.67 0.72 0.70 0.47 0.65 0.67 0.52 0.58 0.75 0.61 0.56 0.63 0.73 0.74 0.68 0.62 0.86 0.81 0.90 1.12 1.13 1.23 1.35 1.32 1.29 1.34 1.33 1.34 1.39 1.44 1.41 1.32 1.31 1.26 1.25 1.29 1.31 1.30 1.31 1.33 1.35 1.37 1.41 1.44 1.46 1.46 1.49 1.52 1.54 1.54 1.49 1.45 1.43 1.44 1.49 1.56 1.60 1.60 1.59 1.56 1.55 1.55 1.57 1.61 1.61 1.60 1.57 1.54 1.54 1.57 1.60 1.62 1.59 1.58 1.58 1.55 1.56 1.58 1.59
0.32 0.32 0.37 0.38 0.37 0.46 0.51 0.51 0.58 0.64 0.56 0.63 0.51 0.58 0.78 0.83 0.73 0.55 0.46 0.60 0.61 0.53 0.61 0.77 0.69 0.75 0.78 0.67 1.12 1.21 1.23 1.23 1.25 1.27 1.28 1.33 1.40 1.35 1.30 1.30 1.27 1.25 1.30 1.34 1.34 1.37 1.38 1.38 1.38 1.39 1.44 1.46 1.45 1.45 1.50 1.53 1.60 1.57 1.50 1.41 1.35 1.40 1.44 1.53 1.60 1.61 1.62 1.62 1.59 1.58 1.61 1.64 1.61 1.57 1.59 1.60 1.58 1.61 1.60 1.60 1.60 1.60 1.59 1.55 1.60 1.64
0.40 0.31 0.34 0.36 0.37 0.45 0.45 0.44 0.51 0.53 0.53 0.55 0.49 0.65 0.61 0.50 0.44 0.60 0.58 0.46 0.48 0.49 0.56 0.64 0.72 0.74 0.79 0.79 0.99 1.00 1.08 1.16 1.23 1.27 1.27 1.28 1.35 1.31 1.29 1.30 1.30 1.28 1.30 1.34 1.42 1.39 1.39 1.39 1.39 1.39 1.41 1.45 1.47 1.48 1.51 1.57 1.62 1.61 1.57 1.49 1.39 1.31 1.36 1.45 1.56 1.62 1.67 1.71 1.68 1.64 1.64 1.63 1.63 1.62 1.59 1.63 1.65 1.65 1.63 1.59 1.59 1.60 1.61 1.64 1.67 1.66
0.39 0.31 0.30 0.36 0.36 0.42 0.44 0.49 0.44 0.44 0.49 0.48 0.59 0.59 0.65 0.57 0.54 0.49 0.52 0.57 0.57 0.51 0.52 0.53 0.65 0.59 0.79 0.83 0.95 0.96 1.05 1.13 1.24 1.30 1.27 1.28 1.34 1.34 1.32 1.31 1.29 1.26 1.31 1.37 1.41 1.38 1.38 1.38 1.39 1.40 1.40 1.41 1.44 1.46 1.53 1.59 1.63 1.61 1.60 1.54 1.44 1.40 1.37 1.40 1.47 1.55 1.56 1.66 1.70 1.68 1.70 1.67 1.62 1.60 1.59 1.61 1.63 1.63 1.67 1.60 1.61 1.64 1.64 1.68 1.75 1.71
0.37 0.38 0.29 0.32 0.39 0.42 0.37 0.41 0.41 0.46 0.40 0.38 0.36 0.40 0.50 0.54 0.68 0.61 0.63 0.55 0.52 0.50 0.51 0.50 0.50 0.60 0.77 0.99 0.98 1.01 1.07 1.15 1.27 1.32 1.31 1.28 1.30 1.36 1.39 1.40 1.37 1.32 1.29 1.35 1.37 1.36 1.36 1.35 1.37 1.40 1.42 1.44 1.47 1.50 1.52 1.55 1.59 1.62 1.64 1.58 1.49 1.37 1.35 1.35 1.39 1.46 1.51 1.57 1.64 1.65 1.62 1.62 1.58 1.54 1.59 1.60 1.62 1.64 1.68 1.66 1.68 1.68 1.69 1.74 1.74 1.75
0.39 0.38 0.33 0.34 0.34 0.34 0.37 0.38 0.38 0.49 0.45 0.40 0.37 0.35 0.45 0.50 0.50 0.44 0.46 0.60 0.60 0.54 0.50 0.49 0.46 0.62 0.87 1.05 1.04 1.06 1.12 1.16 1.30 1.34 1.27 1.26 1.27 1.35 1.41 1.44 1.46 1.40 1.36 1.35 1.38 1.36 1.34 1.35 1.36 1.39 1.42 1.44 1.45 1.45 1.46 1.51 1.57 1.61 1.60 1.61 1.55 1.43 1.37 1.32 1.33 1.38 1.44 1.52 1.59 1.59 1.61 1.60 1.60 1.60 1.61 1.59 1.62 1.62 1.67 1.68 1.69 1.71 1.72 1.68 1.73 1.73
0.44 0.43 0.39 0.32 0.35 0.35 0.38 0.39 0.39 0.47 0.44 0.42 0.40 0.35 0.38 0.39 0.48 0.46 0.42 0.49 0.58 0.59 0.65 0.61 0.52 0.59 0.98 1.08 1.08 1.10 1.15 1.15 1.19 1.30 1.27 1.28 1.32 1.38 1.46 1.51 1.53 1.51 1.43 1.39 1.40 1.37 1.35 1.34 1.35 1.37 1.39 1.39 1.40 1.42 1.45 1.50 1.53 1.57 1.60 1.62 1.61 1.50 1.38 1.35 1.33 1.36 1.40 1.46 1.51 1.55 1.60 1.61 1.59 1.61 1.63 1.61 1.65 1.65 1.67 1.71 1.71 1.73 1.68 1.65 1.70 1.74
0.46 0.41 0.35 0.33 0.36 0.38 0.39 0.37 0.36 0.42 0.45 0.37 0.36 0.36 0.33 0.32 0.42 0.48 0.44 0.53 0.50 0.56 0.52 0.57 0.51 0.65 0.96 1.11 1.11 1.14 1.18 1.24 1.25 1.21 1.21 1.29 1.33 1.39 1.47 1.53 1.55 1.54 1.51 1.51 1.46 1.43 1.38 1.35 1.37 1.38 1.38 1.39 1.41 1.41 1.43 1.47 1.51 1.55 1.61 1.63 1.64 1.57 1.48 1.40 1.38 1.37 1.36 1.38 1.44 1.50 1.54 1.55 1.59 1.58 1.60 1.60 1.66 1.67 1.67 1.71 1.73 1.74 1.67 1.66 1.67 1.69
0.38 0.42 0.39 0.31 0.29 0.30 0.30 0.31 0.31 0.35 0.39 0.35 0.32 0.34 0.32 0.34 0.35 0.38 0.42 0.52 0.41 0.49 0.51 0.51 0.46 0.57 0.92 1.10 1.12 1.15 1.18 1.21 1.26 1.32 1.34 1.29 1.34 1.37 1.43 1.51 1.57 1.60 1.57 1.55 1.51 1.48 1.42 1.34 1.32 1.32 1.35 1.36 1.40 1.44 1.45 1.46 1.47 1.50 1.56 1.62 1.62 1.60 1.57 1.47 1.42 1.38 1.37 1.37 1.38 1.44 1.47 1.49 1.52 1.52 1.55 1.57 1.62 1.66 1.69 1.69 1.72 1.74 1.70 1.69 1.66 1.67
0.42 0.40 0.39 0.31 0.27 0.25 0.24 0.23 0.25 0.27 0.31 0.34 0.35 0.33 0.27 0.24 0.24 0.25 0.25 0.35 0.30 0.48 0.52 0.46 0.46 0.67 0.91 1.04 1.05 1.08 1.14 1.18 1.26 1.31 1.35 1.37 1.37 1.42 1.46 1.51 1.58 1.64 1.63 1.61 1.61 1.55 1.45 1.36 1.34 1.33 1.34 1.35 1.38 1.42 1.44 1.45 1.48 1.51 1.53 1.58 1.62 1.60 1.57 1.52 1.46 1.41 1.38 1.38 1.36 1.37 1.40 1.46 1.48 1.46 1.51 1.57 1.60 1.63 1.67 1.69 1.71 1.73 1.75 1.73 1.67 1.67
0.44 0.41 0.42 0.39 0.35 0.33 0.34 0.38 0.40 0.42 0.36 0.30 0.47 0.34 0.33 0.30 0.24 0.22 0.26 0.30 0.28 0.43 0.44 0.50 0.50 0.61 0.76 0.88 0.97 1.01 1.07 1.09 1.13 1.23 1.27 1.31 1.38 1.48 1.59 1.61 1.64 1.67 1.68 1.67 1.64 1.64 1.60 1.50 1.38 1.37 1.37 1.37 1.39 1.40 1.44 1.46 1.49 1.51 1.53 1.54 1.58 1.61 1.59 1.55 1.49 1.44 1.41 1.41 1.38 1.34 1.36 1.41 1.43 1.45 1.46 1.52 1.59 1.62 1.63 1.66 1.71 1.73 1.70 1.72 1.70 1.67
0.44 0.37 0.40 0.39 0.41 0.40 0.41 0.41 0.43 0.41 0.44 0.53 0.43 0.37 0.46 0.42 0.33 0.26 0.23 0.24 0.35 0.39 0.37 0.53 0.61 0.56 0.74 0.89 0.96 0.99 1.05 1.11 1.17 1.25 1.30 1.32 1.34 1.40 1.56 1.68 1.69 1.68 1.72 1.73 1.67 1.65 1.57 1.62 1.67 1.50 1.42 1.42 1.39 1.39 1.40 1.47 1.50 1.52 1.54 1.52 1.55 1.61 1.62 1.59 1.52 1.46 1.44 1.45 1.44 1.37 1.37 1.42 1.44 1.44 1.46 1.49 1.53 1.59 1.62 1.64 1.69 1.72 1.73 1.75 1.72 1.70
0.43 0.37 0.40 0.39 0.43 0.44 0.51 0.52 0.53 0.62 0.63 0.60 0.51 0.46 0.43 0.48 0.41 0.34 0.35 0.35 0.45 0.36 0.39 0.62 0.67 0.68 0.84 0.96 1.03 1.09 1.14 1.14 1.22 1.28 1.37 1.42 1.41 1.40 1.49 1.56 1.60 1.61 1.68 1.69 1.66 1.64 1.62 1.63 1.65 1.74 1.66 1.50 1.45 1.38 1.38 1.43 1.50 1.55 1.56 1.55 1.58 1.61 1.62 1.64 1.59 1.52 1.47 1.46 1.44 1.42 1.42 1.46 1.47 1.47 1.48 1.49 1.48 1.51 1.57 1.61 1.64 1.67 1.72 1.75 1.75 1.76
0.44 0.40 0.42 0.42 0.45 0.50 0.55 0.57 0.58 0.56 0.53 0.54 0.59 0.56 0.53 0.50 0.52 0.49 0.45 0.50 0.52 0.57 0.64 0.67 0.70 0.72 0.88 0.99 1.08 1.16 1.26 1.26 1.27 1.34 1.38 1.41 1.49 1.51 1.45 1.50 1.52 1.54 1.60 1.64 1.63 1.64 1.67 1.69 1.72 1.73 1.81 1.80 1.56 1.48 1.45 1.43 1.48 1.53 1.54 1.55 1.59 1.62 1.66 1.65 1.59 1.54 1.53 1.49 1.45 1.45 1.47 1.48 1.47 1.46 1.48 1.48 1.48 1.47 1.48 1.54 1.59 1.60 1.61 1.63 1.66 1.71
0.41 0.38 0.44 0.43 0.44 0.45 0.52 0.57 0.59 0.60 0.54 0.54 0.61 0.62 0.56 0.56 0.59 0.61 0.57 0.58 0.59 0.62 0.68 0.67 0.64 0.71 0.99 1.17 1.17 1.26 1.30 1.33 1.33 1.30 1.32 1.36 1.41 1.52 1.55 1.53 1.55 1.57 1.62 1.64 1.66 1.69 1.70 1.72 1.73 1.76 1.82 1.86 1.82 1.67 1.57 1.50 1.51 1.55 1.56 1.57 1.60 1.64 1.68 1.63 1.56 1.54 1.54 1.53 1.52 1.50 1.50 1.50 1.47 1.47 1.45 1.47 1.49 1.50 1.46 1.45 1.48 1.52 1.57 1.59 1.61 1.62
0.40 0.39 0.45 0.45 0.41 0.42 0.50 0.54 0.54 0.56 0.57 0.54 0.56 0.60 0.58 0.57 0.57 0.64 0.59 0.72 0.61 0.58 0.64 0.62 0.58 0.69 0.97 1.15 1.18 1.20 1.21 1.21 1.21 1.25 1.28 1.33 1.39 1.40 1.44 1.51 1.57 1.61 1.63 1.66 1.71 1.74 1.73 1.74 1.75 1.76 1.80 1.91 1.91 1.87 1.77 1.68 1.63 1.60 1.57 1.59 1.61 1.68 1.74 1.67 1.61 1.58 1.57 1.57 1.57 1.54 1.50 1.49 1.49 1.47 1.47 1.50 1.49 1.48 1.48 1.46 1.44 1.43 1.46 1.51 1.53 1.57
0.38 0.39 0.40 0.43 0.39 0.41 0.49 0.52 0.50 0.46 0.43 0.41 0.53 0.60 0.71 0.71 0.74 0.75 0.78 0.80 0.76 0.77 0.61 0.54 0.64 0.90 1.01 1.10 1.05 1.11 1.16 1.17 1.15 1.14 1.17 1.24 1.31 1.39 1.42 1.41 1.50 1.60 1.67 1.69 1.68 1.70 1.75 1.77 1.84 1.86 1.89 1.89 1.94 1.92 1.91 1.84 1.80 1.76 1.78 1.79 1.76 1.76 1.72 1.68 1.67 1.69 1.68 1.67 1.64 1.62 1.57 1.52 1.50 1.50 1.49 1.49 1.50 1.52 1.51 1.44 1.40 1.38 1.37 1.40 1.48 1.53
0.37 0.37 0.38 0.45 0.36 0.41 0.48 0.50 0.46 0.39 0.33 0.40 0.72 0.81 0.77 0.68 0.68 0.65 0.71 0.76 0.82 0.81 0.78 0.88 0.89 1.00 1.04 1.06 1.02 1.04 1.08 1.14 1.20 1.30 1.36 1.34 1.35 1.34 1.38 1.49 1.59 1.64 1.66 1.70 1.72 1.76 1.82 1.84 1.83 1.87 1.92 1.96 2.00 2.04 2.04 2.06 1.94 1.91 1.97 2.05 2.08 1.92 1.84 1.83 1.89 1.93 1.84 1.73 1.70 1.72 1.69 1.64 1.61 1.57 1.52 1.51 1.50 1.49 1.48 1.46 1.40 1.38 1.38 1.41 1.48 1.52
0.34 0.34 0.35 0.42 0.38 0.38 0.47 0.47 0.40 0.33 0.38 0.65 0.78 0.80 0.86 0.84 0.78 0.73 0.79 0.81 0.84 0.91 0.93 0.91 0.96 0.97 1.00 1.15 1.12 1.11 1.17 1.25 1.33 1.34 1.36 1.44 1.46 1.42 1.45 1.48 1.53 1.57 1.66 1.73 1.76 1.79 1.84 1.87 1.91 1.92 1.93 2.00 2.04 2.08 2.08 2.04 2.05 2.02 1.97 2.03 2.06 2.08 1.96 1.86 1.83 1.80 1.79 1.74 1.73 1.76 1.79 1.71 1.58 1.58 1.70 1.71 1.67 1.58 1.51 1.53 1.49 1.44 1.45 1.44 1.43 1.44
0.32 0.32 0.34 0.37 0.40 0.43 0.41 0.42 0.34 0.39 0.59 0.70 0.74 0.78 0.84 0.83 0.79 0.77 0.70 0.81 0.87 0.88 0.91 0.88 0.96 1.07 1.14 1.15 1.16 1.18 1.18 1.23 1.30 1.32 1.37 1.45 1.49 1.46 1.45 1.45 1.51 1.55 1.55 1.66 1.70 1.79 1.89 1.92 1.91 1.91 1.91 1.98 2.00 2.01 2.03 2.07 2.13 2.09 2.03 2.03 2.02 2.04 2.01 1.91 1.84 1.79 1.78 1.79 1.84 1.86 1.90 1.90 1.80 1.69 1.75 1.88 1.74 1.61 1.68 1.70 1.65 1.55 1.55 1.54 1.54 1.55
0.36 0.34 0.35 0.34 0.43 0.37 0.41 0.43 0.45 0.58 0.57 0.61 0.63 0.67 0.73 0.67 0.69 0.63 0.55 0.70 0.91 0.96 0.94 0.89 0.94 1.02 1.08 1.11 1.11 1.13 1.16 1.16 1.10 1.18 1.37 1.40 1.45 1.50 1.50 1.49 1.53 1.56 1.60 1.69 1.73 1.74 1.84 1.95 1.96 1.98 1.97 1.96 1.96 1.95 1.97 2.04 2.07 2.08 1.99 1.94 1.98 1.96 1.97 1.98 1.94 1.91 1.89 1.86 1.92 2.00 1.99 1.94 1.92 1.88 1.80 1.74 1.74 1.85 1.83 1.75 1.72 1.73 1.73 1.65 1.65 1.68
0.38 0.31 0.35 0.33 0.39 0.46 0.42 0.41 0.43 0.43 0.38 0.48 0.62 0.72 0.80 0.81 0.83 0.79 0.66 0.61 0.88 0.99 1.05 0.95 0.90 0.94 0.99 1.01 1.03 1.04 1.05 0.93 0.85 0.99 1.26 1.37 1.45 1.46 1.52 1.55 1.57 1.55 1.58 1.67 1.78 1.82 1.86 1.86 1.95 2.00 1.99 1.96 1.94 1.98 2.02 2.04 2.04 2.00 1.97 1.97 2.00 1.98 1.93 1.94 1.94 1.94 1.92 1.89 1.92 1.96 1.97 1.97 1.96 1.91 1.86 1.83 1.74 1.72 1.82 1.93 1.91 1.85 1.87 1.77 1.74 1.73
0.39 0.37 0.37 0.35 0.38 0.40 0.40 0.39 0.39 0.37 0.42 0.57 0.62 0.71 0.75 0.78 0.75 0.77 0.64 0.52 0.77 0.94 1.02 1.01 0.93 0.96 0.96 0.94 0.94 0.99 0.88 0.77 0.81 0.99 1.23 1.33 1.37 1.43 1.43 1.47 1.52 1.54 1.54 1.61 1.68 1.72 1.75 1.81 1.87 1.90 1.91 1.93 1.90 1.99 2.03 2.00 1.99 1.95 1.91 1.90 1.94 1.95 1.88 1.84 1.87 1.89 1.87 1.88 1.91 1.94 1.99 2.01 2.00 1.98 1.94 1.93 1.91 1.83 1.79 1.88 1.99 2.01 1.99 1.91 1.86 1.84
0.37 0.36 0.36 0.33 0.34 0.40 0.39 0.38 0.38 0.49 0.48 0.58 0.67 0.70 0.73 0.74 0.70 0.60 0.42 0.46 0.76 0.91 1.01 1.03 0.98 0.94 0.93 0.94 0.95 0.93 0.84 0.72 0.80 0.98 1.24 1.30 1.36 1.39 1.39 1.37 1.42 1.48 1.51 1.58 1.67 1.72 1.74 1.77 1.77 1.78 1.79 1.77 1.79 1.90 1.96 1.97 1.93 1.89 1.87 1.86 1.91 1.89 1.87 1.89 1.94 2.01 2.04 2.03 2.02 2.03 2.04 2.04 2.02 2.01 2.00 2.00 2.01 2.02 1.99 2.00 2.07 2.06 2.04 2.03 1.98 1.91
0.35 0.35 0.37 0.34 0.35 0.37 0.38 0.40 0.46 0.51 0.63 0.70 0.71 0.74 0.75 0.77 0.59 0.41 0.35 0.62 0.85 0.95 1.01 1.01 1.01 1.03 1.01 0.94 0.93 0.83 0.95 1.02 1.09 1.20 1.25 1.26 1.26 1.31 1.37 1.40 1.37 1.40 1.44 1.49 1.58 1.69 1.69 1.69 1.69 1.69 1.70 1.74 1.79 1.82 1.84 1.87 1.83 1.81 1.82 1.83 1.83 1.83 1.86 1.93 1.96 1.97 2.02 2.06 2.06 2.07 2.07 2.09 2.10 2.09 2.11 2.12 2.11 2.13 2.14 2.10 2.07 2.08 2.09 2.10 2.08 2.03
0.37 0.38 0.38 0.40 0.38 0.38 0.42 0.40 0.43 0.51 0.64 0.71 0.74 0.73 0.74 0.58 0.41 0.39 0.71 0.88 0.93 0.92 1.00 1.03 0.98 1.01 1.01 0.98 0.98 1.01 1.07 1.15 1.19 1.21 1.19 1.20 1.21 1.25 1.31 1.35 1.34 1.32 1.34 1.43 1.47 1.51 1.55 1.57 1.57 1.60 1.63 1.67 1.71 1.77 1.79 1.73 1.67 1.71 1.74 1.75 1.74 1.82 1.89 1.94 1.94 1.96 1.99 2.00 2.06 2.09 2.06 2.05 2.06 2.11 2.12 2.15 2.15 2.12 2.11 2.14 2.15 2.13 2.11 2.11 2.08 2.07
0.40 0.35 0.34 0.33 0.43 0.45 0.44 0.39 0.39 0.34 0.60 0.73 0.67 0.66 0.73 0.48 0.58 0.78 0.86 0.94 0.97 0.95 0.96 0.98 1.03 1.02 1.05 1.00 1.06 1.05 1.06 1.08 1.09 1.10 1.14 1.17 1.17 1.19 1.24 1.25 1.25 1.25 1.25 1.28 1.36 1.46 1.49 1.50 1.52 1.52 1.54 1.59 1.63 1.67 1.67 1.67 1.62 1.62 1.64 1.61 1.65 1.81 1.86 1.89 1.87 1.86 1.88 1.94 1.93 1.97 1.98 1.97 1.99 2.04 2.09 2.08 2.11 2.09 2.04 2.09 2.11 2.13 2.15 2.13 2.10 2.06
0.49 0.38 0.38 0.40 0.51 0.37 0.37 0.33 0.38 0.57 0.73 0.81 0.71 0.55 0.72 0.77 0.88 0.91 0.89 0.84 0.97 0.98 0.96 0.97 1.02 1.07 1.08 1.05 1.03 1.04 1.05 1.04 1.05 1.07 1.06 1.08 1.12 1.16 1.16 1.17 1.20 1.22 1.25 1.28 1.30 1.31 1.31 1.31 1.38 1.43 1.49 1.53 1.55 1.57 1.59 1.58 1.54 1.55 1.56 1.56 1.66 1.68 1.71 1.74 1.75 1.75 1.75 1.77 1.78 1.82 1.87 1.90 1.94 1.99 1.97 1.96 1.94 1.91 1.90 1.94 2.02 2.05 2.07 2.06 2.01 1.94
0.44 0.40 0.46 0.38 0.48 0.44 0.41 0.49 0.63 0.74 0.78 0.83 0.81 0.79 0.84 0.92 0.96 0.95 0.92 0.88 0.88 0.93 1.03 0.96 0.95 1.05 1.08 1.07 1.04 1.03 1.00 1.04 1.05 1.07 1.05 1.04 1.06 1.06 1.08 1.10 1.12 1.13 1.13 1.14 1.18 1.19 1.13 1.11 1.13 1.19 1.25 1.33 1.37 1.41 1.44 1.47 1.44 1.45 1.44 1.51 1.55 1.52 1.54 1.56 1.58 1.58 1.54 1.55 1.60 1.64 1.70 1.76 1.79 1.82 1.82 1.84 1.87 1.86 1.88 1.89 1.90 1.89 1.97 1.99 1.96 1.93
0.52 0.51 0.56 0.50 0.53 0.61 0.66 0.70 0.73 0.72 0.72 0.76 0.82 0.85 0.83 0.86 0.91 0.92 0.88 0.86 0.92 0.97 1.01 0.93 0.97 1.03 1.07 1.09 1.01 1.02 1.01 1.02 1.03 1.03 1.03 1.05 1.04 1.04 1.04 1.04 1.05 1.05 1.05 1.05 1.04 1.01 0.95 0.94 0.95 0.96 0.99 1.05 1.09 1.10 1.15 1.21 1.26 1.26 1.33 1.43 1.44 1.44 1.44 1.46 1.46 1.45 1.48 1.51 1.52 1.53 1.52 1.52 1.54 1.51 1.56 1.63 1.70 1.75 1.78 1.76 1.78 1.79 1.81 1.79 1.75 1.74
0.54 0.53 0.48 0.42 0.56 0.49 0.43 0.65 0.66 0.66 0.70 0.73 0.74 0.79 0.81 0.82 0.83 0.87 0.86 0.87 0.92 0.97 0.99 1.00 1.00 1.00 1.03 1.08 1.06 1.02 1.02 1.03 1.01 1.00 1.01 1.02 0.99 0.96 0.95 0.93 0.94 0.97 1.00 1.01 0.98 0.92 0.87 0.86 0.84 0.85 0.87 0.90 0.96 0.96 0.95 0.97 0.98 0.99 1.03 1.06 1.11 1.15 1.21 1.20 1.19 1.22 1.26 1.31 1.37 1.41 1.47 1.46 1.46 1.50 1.58 1.60 1.61 1.61 1.56 1.57 1.62 1.68 1.70 1.70 1.64 1.60
0.44 0.57 0.42 0.41 0.44 0.41 0.42 0.61 0.67 0.71 0.69 0.71 0.72 0.69 0.70 0.75 0.79 0.84 0.84 0.86 0.89 0.96 0.98 0.99 1.02 1.00 1.03 1.01 1.04 1.03 1.02 1.04 1.00 0.99 1.00 1.00 0.99 0.98 0.97 0.95 0.94 0.97 1.03 1.05 1.02 0.98 0.90 0.88 0.82 0.77 0.74 0.74 0.79 0.85 0.88 0.90 0.89 0.89 0.88 0.90 0.93 0.90 0.88 0.90 1.00 1.07 1.13 1.19 1.24 1.29 1.35 1.39 1.45 1.45 1.49 1.53 1.54 1.50 1.47 1.46 1.44 1.44 1.47 1.46 1.45 1.42
0.55 0.59 0.44 0.48 0.40 0.49 0.59 0.64 0.66 0.69 0.67 0.65 0.67 0.70 0.71 0.73 0.72 0.75 0.80 0.79 0.81 0.83 0.91 0.98 1.03 1.00 1.02 1.00 1.05 1.04 1.01 1.01 1.03 1.05 1.04 1.06 1.06 1.05 1.02 0.98 0.96 0.97 1.01 1.02 1.01 1.00 0.89 0.86 0.85 0.81 0.77 0.77 0.82 0.83 0.81 0.83 0.88 0.90 0.87 0.86 0.88 0.86 0.84 0.82 0.83 0.87 0.93 0.97 1.05 1.12 1.21 1.28 1.26 1.34 1.39 1.41 1.44 1.44 1.40 1.34 1.30 1.27 1.28 1.34 1.35 1.32
0.50 0.46 0.57 0.52 0.42 0.40 0.41 0.50 0.58 0.45 0.48 0.60 0.61 0.64 0.69 0.72 0.71 0.67 0.70 0.72 0.73 0.71 0.75 0.78 0.86 0.95 0.98 1.01 1.01 1.01 0.98 1.00 1.03 1.05 1.03 1.05 1.04 1.05 1.04 1.04 1.04 1.05 1.05 1.06 1.05 1.03 0.98 0.90 0.87 0.84 0.82 0.84 0.88 0.88 0.87 0.87 0.88 0.90 0.92 0.88 0.82 0.81 0.81 0.82 0.80 0.77 0.77 0.82 0.87 0.93 0.99 1.05 1.12 1.17 1.22 1.26 1.28 1.27 1.24 1.29 1.28 1.27 1.25 1.26 1.32 1.36
0.46 0.51 0.50 0.44 0.40 0.40 0.52 0.60 0.62 0.59 0.60 0.65 0.66 0.67 0.66 0.71 0.71 0.66 0.66 0.66 0.71 0.74 0.75 0.71 0.68 0.74 0.81 0.89 0.96 0.94 0.94 0.94 0.97 1.00 1.01 1.01 1.02 1.03 1.05 1.05 1.04 1.05 1.06 1.06 1.04 1.02 1.01 0.93 0.90 0.86 0.84 0.86 0.90 0.90 0.89 0.90 0.94 0.96 0.94 0.89 0.83 0.83 0.84 0.86 0.83 0.80 0.79 0.82 0.85 0.88 0.92 0.96 0.98 1.02 1.05 1.09 1.14 1.21 1.21 1.16 1.20 1.22 1.21 1.21 1.22 1.23
Wind_Speed
20 19 19 21 21 21 20 18 16 14 12 11 10 9 9 9 8 8 10 12 13 13 15 14 13 14 15 16 15 13 14 16 18 18 17 17 16 16 17 16 15 15 14 13 15 15 14 13 13 12 12 11 11 11 12 12 11 12 13 13 14 14 15 15 15 15 15 15 15 15 15 16 16 16 16 17 17 17 17 16 16 15 14 14 14 13
20 20 20 21 22 22 21 18 17 15 13 12 10 9 9 8 8 7 9 13 12 12 15 15 14 15 15 16 14 12 14 17 18 19 18 18 16 16 18 17 15 15 14 14 16 16 15 14 13 13 12 12 12 12 12 12 12 12 13 13 14 14 15 15 15 15 15 15 15 16 16 16 16 16 16 16 16 16 16 16 15 15 14 13 12 12
19 20 21 21 21 23 22 18 17 16 14 13 11 10 9 8 8 7 9 12 12 12 14 16 15 15 17 18 15 12 14 16 18 19 19 19 17 16 18 17 16 15 15 15 16 16 15 14 14 13 13 12 12 12 12 12 12 13 13 14 14 14 15 15 15 15 16 16 16 16 16 16 16 16 15 15 15 15 15 15 14 14 13 13 12 11
19 19 20 21 20 23 23 20 18 17 15 14 12 10 9 10 9 9 10 11 11 12 13 16 15 15 17 18 16 14 14 15 16 18 19 19 18 17 18 17 17 16 16 16 17 16 16 15 14 14 13 13 12 12 13 13 13 13 13 14 14 15 15 15 15 16 16 17 16 16 16 16 15 15 15 15 15 15 14 14 13 13 12 12 11 10
19 18 18 19 20 22 23 21 19 17 15 15 14 11 10 12 11 8 10 11 11 11 12 15 15 15 19 20 18 16 15 15 15 16 19 19 18 18 18 18 17 17 17 17 17 16 16 15 15 15 14 13 13 13 13 13 13 13 13 14 14 15 15 15 15 16 16 17 16 16 16 15 15 15 15 14 14 14 13 13 12 12 12 11 10 10
19 18 17 17 20 22 21 20 20 19 16 15 15 13 12 13 10 9 11 12 11 11 13 16 15 15 20 21 19 18 16 16 16 17 19 18 18 19 19 18 18 18 18 17 17 17 16 16 15 15 15 14 13 13 13 13 13 13 13 14 14 15 15 15 15 16 16 16 16 16 15 15 15 14 14 14 13 13 13 12 11 11 11 10 10 9
17 18 17 19 21 21 20 19 20 19 17 15 14 13 12 11 10 11 13 13 12 11 12 15 15 15 19 22 20 19 18 17 16 17 19 18 18 20 20 19 19 18 18 18 17 17 17 16 16 16 15 15 14 14 13 13 13 13 13 14 14 15 15 15 15 15 16 16 16 15 15 15 14 14 14 13 13 12 12 11 11 10 10 10 9 9
17 17 17 19 21 20 20 19 20 20 17 15 14 13 13 11 11 12 12 12 12 11 10 12 14 15 19 21 21 20 19 18 18 18 19 18 18 20 20 20 20 19 19 18 18 17 18 17 17 17 16 15 15 14 14 13 13 13 13 14 14 14 15 15 15 15 16 16 16 15 15 14 14 14 13 13 12 11 11 11 10 10 10 9 9 8
16 17 18 19 20 20 19 18 19 19 17 15 14 13 12 11 11 11 11 11 11 11 10 11 13 15 18 20 20 21 20 20 20 20 20 19 19 20 20 21 21 20 19 19 19 18 18 18 18 18 17 16 15 15 14 14 13 13 13 14 14 14 15 15 15 15 15 15 15 15 15 14 14 13 12 12 11 11 11 10 10 10 9 9 8 8
16 17 17 17 18 19 17 17 18 18 16 14 13 12 11 9 9 9 10 10 10 10 11 12 13 13 15 19 22 22 22 22 21 20 20 20 19 20 20 21 22 20 19 19 19 19 19 19 18 18 17 17 16 15 14 14 14 14 14 14 14 14 15 15 15 15 15 15 15 15 15 14 13 12 12 12 11 11 11 10 10 9 9 9 8 8
16 17 17 17 18 18 17 17 17 17 17 16 14 13 11 9 8 9 9 9 9 9 10 12 14 12 11 16 22 24 23 23 22 20 20 20 20 20 20 21 22 21 20 20 19 19 19 19 19 18 18 17 16 16 15 15 14 14 14 14 14 14 14 15 15 14 14 14 14 14 14 14 13 12 12 12 12 11 11 10 10 9 9 9 8 8
15 15 16 16 17 18 18 17 16 17 18 17 15 15 12 9 8 7 8 8 8 9 9 11 14 14 11 12 17 22 23 23 23 22 21 21 22 21 20 21 22 22 20 20 20 19 20 20 19 19 19 18 17 16 16 15 15 15 15 15 14 14 14 14 14 14 14 14 14 14 14 14 13 13 12 12 12 12 11 11 10 9 9 9 8 8
13 15 15 14 15 19 20 18 17 17 17 17 17 16 12 9 8 7 8 8 8 9 8 9 12 13 12 11 13 18 22 26 26 24 23 23 23 23 21 21 22 22 21 20 20 20 20 20 20 20 19 19 18 17 17 16 16 16 16 16 15 15 14 14 14 14 14 15 14 14 14 14 13 13 13 12 12 12 11 11 10 10 10 9 9 8
11 13 14 14 16 19 20 20 19 19 18 18 18 16 12 10 8 8 9 8 9 9 7 8 10 10 10 10 12 15 19 26 29 27 26 25 24 23 22 21 23 23 22 21 21 20 20 20 20 20 20 19 19 18 18 17 16 16 16 16 16 15 15 15 14 14 14 14 14 14 14 14 14 13 13 12 12 12 11 11 11 10 10 10 9 9
11 12 13 16 18 19 19 20 20 19 18 17 16 15 13 11 10 9 9 9 9 9 7 7 9 9 8 8 10 12 15 22 28 28 27 26 25 23 21 21 23 24 23 22 21 21 21 21 21 20 20 20 20 19 18 18 17 17 16 16 16 16 16 15 15 15 14 14 14 14 13 13 13 13 13 13 12 12 12 11 11 10 10 10 9 9
10 11 13 14 16 18 19 18 18 18 17 16 15 14 13 12 10 9 9 9 9 8 8 8 8 8 9 7 8 10 11 18 26 28 26 26 27 27 24 22 22 24 24 23 22 22 21 22 21 20 20 20 20 20 19 18 18 17 17 17 17 17 16 16 15 15 15 14 14 14 14 13 13 13 13 13 12 12 12 11 11 11 10 10 9 9
9 10 12 12 12 16 20 19 18 18 16 15 15 15 13 12 11 9 8 8 8 7 7 8 8 7 8 7 7 9 10 14 22 27 27 26 27 28 27 23 22 23 24 24 23 22 22 22 22 21 21 21 21 21 20 19 18 18 17 17 17 17 17 16 16 16 15 15 15 15 14 13 13 13 13 13 12 12 12 12 11 11 10 10 9 9
9 8 11 13 13 15 19 19 19 18 16 14 15 15 13 11 10 9 9 8 8 7 7 8 8 7 7 7 7 10 11 13 18 25 28 27 26 27 28 25 23 23 24 24 23 23 23 23 22 21 21 22 22 21 21 20 19 18 18 18 18 18 17 17 17 16 16 15 15 15 15 14 13 13 13 13 13 12 12 12 11 11 10 10 10 9
9 7 10 13 15 16 16 18 19 17 15 15 14 15 14 11 10 10 9 9 9 7 7 7 7 8 8 8 8 10 12 13 17 22 27 28 28 28 28 27 24 23 23 24 24 23 23 23 22 22 22 22 22 22 21 20 20 19 18 18 18 18 18 17 17 17 16 16 15 15 15 14 14 13 13 12 12 12 12 12 12 11 10 10 10 9
9 8 9 10 13 15 15 17 19 17 16 15 13 13 13 11 11 12 10 9 9 8 7 6 5 6 8 9 9 10 10 10 15 22 26 28 28 28 28 27 25 24 24 24 24 24 24 24 23 23 23 23 23 22 21 21 20 19 19 18 18 18 18 18 18 17 17 17 16 15 15 15 15 14 13 13 13 12 12 12 12 11 11 10 10 10
8 9 8 8 11 16 16 16 18 19 18 16 14 13 13 11 10 11 10 10 9 8 7 6 5 6 7 8 9 10 8 7 11 20 25 28 29 27 28 28 26 24 24 25 25 25 25 24 24 23 23 23 23 23 22 22 21 20 19 19 19 19 18 18 18 18 17 17 17 16 16 16 15 15 14 14 13 13 12 12 12 12 11 11 10 10
7 8 7 7 10 14 15 14 16 19 18 17 16 14 13 12 11 10 10 10 9 8 8 7 6 6 6 7 8 9 8 6 9 17 24 27 27 26 26 27 26 24 24 25 26 25 25 25 24 24 23 23 24 23 23 23 22 21 20 19 19 19 19 19 18 18 18 18 17 17 17 16 16 15 15 14 14 13 13 12 12 12 12 11 11 11
9 9 7 8 10 13 15 13 15 18 16 15 15 15 14 13 12 11 10 10 10 8 8 6 5 6 6 6 8 8 8 8 10 16 21 23 24 24 24 25 25 25 23 24 26 26 26 26 25 24 24 24 24 24 23 23 22 21 21 20 20 20 20 19 19 19 19 18 18 18 17 17 17 16 16 15 15 14 14 13 13 12 12 12 11 11
9 9 7 8 9 11 13 12 13 14 13 13 14 14 14 13 13 12 11 11 10 9 8 5 4 6 6 6 8 9 10 11 12 15 18 21 22 23 24 25 26 25 23 23 25 25 26 27 26 25 25 24 24 24 24 23 23 22 21 21 21 20 20 20 19 19 19 19 19 18 18 18 17 17 17 16 16 15 15 14 14 13 13 12 12 12
9 9 7 7 8 8 9 10 11 11 11 13 15 15 15 15 14 12 10 10 10 11 9 7 5 6 6 5 7 9 10 11 12 14 16 17 19 21 23 26 28 26 23 22 23 24 26 27 26 26 25 25 24 24 24 23 23 22 22 22 21 21 20 20 20 20 19 20 19 19 19 18 18 18 18 17 16 16 15 15 14 14 13 13 13 12
10 8 8 8 9 9 9 10 10 10 10 12 13 13 14 16 16 14 12 11 11 12 10 8 6 6 6 5 6 8 9 10 10 12 13 14 15 19 21 25 29 28 25 22 22 23 25 26 26 26 26 25 25 25 24 24 23 23 23 22 22 21 21 21 21 20 20 20 20 20 19 19 18 18 18 18 17 17 16 16 15 15 15 14 14 13
11 8 7 9 10 10 11 11 9 9 9 9 10 10 9 11 14 15 14 14 13 13 12 10 8 7 7 6 6 7 8 8 9 10 12 11 12 15 18 24 30 30 26 23 22 22 23 23 24 26 26 26 26 26 25 24 24 24 23 23 22 21 21 21 21 21 21 20 20 20 20 20 19 19 19 18 18 18 17 17 16 16 15 15 15 15
12 8 7 9 9 8 8 9 7 7 8 8 9 9 7 7 10 12 15 16 14 14 13 11 7 7 8 7 6 6 6 7 7 8 10 11 11 12 14 19 28 30 26 24 22 21 22 22 22 23 25 27 26 26 26 25 25 25 24 23 23 22 21 21 21 21 21 21 20 20 20 20 20 19 19 19 18 18 18 17 17 17 16 16 16 15
13 9 6 8 8 4 2 4 5 8 10 8 8 9 7 6 8 10 12 14 13 12 12 11 8 7 7 6 6 5 5 5 5 5 7 8 9 10 12 17 24 27 25 24 23 22 22 23 23 22 23 26 27 27 26 26 25 25 24 24 24 23 22 22 21 21 21 21 21 21 21 20 20 20 19 19 19 19 19 18 18 18 17 17 17 16
12 9 6 8 9 6 3 5 7 9 9 8 6 7 8 7 7 8 10 12 12 11 11 11 10 8 7 6 5 5 5 5 5 4 5 5 6 7 10 15 19 23 23 23 23 22 22 23 24 23 22 23 25 27 26 26 26 25 24 24 24 23 23 23 22 22 22 22 22 21 21 21 20 20 20 20 20 20 20 20 19 19 19 19 18 17
11 9 7 8 9 7 4 6 8 9 10 9 6 5 7 7 6 7 9 10 12 12 11 11 10 8 7 6 5 5 5 5 4 4 5 5 6 7 8 11 14 18 20 20 21 22 22 23 24 25 24 22 22 24 25 25 25 25 25 24 24 24 23 23 23 23 22 22 22 22 21 21 21 21 20 20 20 20 20 20 20 20 20 20 20 19
10 9 9 9 8 7 6 7 9 10 10 8 5 4 5 7 7 7 8 9 11 12 12 10 9 9 9 7 6 5 4 5 5 5 5 5 7 9 10 11 12 14 17 18 19 20 21 22 23 24 25 24 23 23 23 24 24 24 24 24 24 24 24 24 24 23 23 23 22 23 22 22 21 21 21 21 20 20 20 20 20 20 20 21 21 20
9 9 9 10 9 7 8 9 10 9 8 5 5 6 6 7 8 8 7 7 8 11 11 11 10 10 9 8 7 5 5 5 5 5 6 6 6 8 10 10 10 12 14 16 18 19 21 23 23 23 24 24 24 23 23 23 23 23 22 22 22 23 23 23 23 22 23 23 22 23 23 22 22 22 22 22 21 20 20 20 20 20 20 20 21 21
9 9 10 12 11 9 9 10 9 8 8 8 9 8 7 6 7 8 7 6 7 9 10 11 11 10 9 8 8 6 5 5 5 5 6 7 7 8 9 9 9 10 11 13 16 17 19 22 24 24 24 24 23 22 21 22 23 23 23 21 20 21 21 21 21 22 22 22 22 22 22 22 22 21 22 22 22 22 21 21 21 21 21 20 20 21
8 9 11 12 11 10 10 10 9 9 11 12 10 9 9 8 7 8 8 7 7 9 10 10 10 10 10 10 9 7 6 5 5 5 5 6 8 8 8 9 9 9 9 11 13 14 16 19 22 24 24 24 23 22 20 20 21 22 23 22 21 20 20 21 22 23 23 23 23 23 23 23 22 22 21 21 21 22 22 22 21 21 21 21 20 21
8 9 11 11 11 11 11 10 11 13 13 13 12 10 9 9 7 8 8 7 7 9 10 11 11 11 11 10 9 8 7 6 5 4 5 6 7 7 7 8 8 8 9 9 10 11 12 15 18 21 23 24 23 22 21 20 20 21 22 22 22 21 21 21 22 23 24 23 23 23 24 24 23 23 23 23 22 22 22 22 23 22 22 22 22 22
7 8 9 10 10 12 12 11 12 13 13 13 12 10 8 8 9 9 9 9 9 9 10 12 12 11 11 11 11 10 9 7 6 5 6 6 6 6 7 7 7 7 7 8 8 8 9 11 14 16 19 21 21 21 22 22 21 21 21 21 21 21 21 21 22 23 24 24 24 24 24 24 24 24 25 25 25 25 24 24 24 24 24 23 23 23
6 7 9 10 10 11 13 13 12 13 13 13 13 11 9 8 10 10 9 10 10 9 9 11 12 12 13 13 13 13 11 10 9 8 7 6 6 7 6 6 7 7 6 7 7 7 8 9 12 13 15 17 17 18 19 20 20 20 19 19 18 18 19 19 20 22 24 25 25 25 25 25 25 25 25 26 26 27 27 26 26 26 26 25 25 24
4 6 8 9 10 12 14 14 13 14 15 15 14 13 11 10 11 10 9 10 11 9 9 10 11 12 13 14 13 12 11 11 12 11 9 7 7 7 7 6 6 6 6 7 7 8 8 9 11 12 13 14 14 14 15 16 17 17 16 16 16 16 16 17 18 19 21 23 25 27 27 26 25 25 25 26 27 28 29 29 28 28 27 26 26 25
4 6 7 8 10 13 15 15 14 14 15 15 15 15 14 12 11 10 10 12 13 10 9 10 11 12 13 14 12 11 11 12 13 12 11 9 8 7 7 7 6 6 6 7 7 8 9 9 10 11 12 13 13 13 13 14 15 15 15 16 16 16 17 17 18 19 19 20 21 23 24 24 24 23 24 25 27 29 30 30 29 29 28 27 26 26
5 6 6 8 10 12 14 16 15 15 16 16 15 16 15 13 11 10 12 13 12 10 10 10 10 11 12 12 12 12 12 12 12 12 11 10 9 8 7 7 6 6 6 7 8 8 8 9 9 9 10 11 12 12 12 13 14 14 15 15 15 16 16 17 18 18 19 19 19 19 20 20 21 21 21 21 23 25 28 29 29 28 28 27 27 26
6 6 6 7 9 11 13 14 13 14 15 15 15 15 14 13 14 14 14 13 11 10 10 10 10 11 11 11 11 11 12 12 12 12 12 11 10 9 8 8 8 7 7 8 8 9 9 8 8 8 9 10 11 11 11 11 11 12 13 13 13 13 14 14 15 16 16 17 17 18 19 19 19 19 19 19 18 19 21 23 25 26 26 27 26 26
6 6 6 7 9 10 11 12 12 13 14 13 13 13 12 13 16 16 13 12 11 11 10 10 11 11 11 11 11 12 12 12 12 13 12 11 11 10 9 9 9 9 9 9 9 9 8 8 9 8 9 9 10 10 10 10 10 10 11 11 11 12 12 12 13 13 14 14 14 15 17 17 18 17 17 17 16 15 15 16 18 20 21 22 23 24
5 6 7 8 9 9 10 11 13 15 13 11 11 12 11 12 14 14 13 12 12 12 11 11 11 11 11 12 12 12 13 13 13 13 13 12 12 11 11 11 10 10 10 10 10 10 9 9 9 9 9 9 9 10 11 11 11 11 11 11 12 12 12 12 13 13 13 13 13 13 14 14 15 15 15 14 14 14 13 13 13 14 15 16 17 18
5 6 7 7 8 9 10 11 12 12 11 9 9 11 10 10 12 12 12 12 12 12 12 12 12 12 12 12 13 13 13 13 13 13 13 13 12 12 12 12 12 11 11 11 11 11 10 10 10 10 10 10 11 11 11 12 12 12 12 13 13 13 13 13 14 14 14 14 14 14 14 14 14 14 14 14 14 13 13 13 13 12 12 12 13 14
5 5 5 6 7 7 8 9 10 9 8 8 8 9 10 10 11 11 11 11 12 12 13 12 12 13 13 13 13 13 13 13 13 13 13 13 13 13 13 13 13 12 12 12 12 11 11 11 11 11 11 11 12 12 12 13 13 13 14 14 15 15 14 14 14 15 15 15 15 15 16 16 16 16 16 16 15 15 14 14 14 14 13 13 13 13
4 4 4 5 6 6 7 9 10 9 8 8 8 8 9 10 11 11 11 11 11 11 12 12 13 13 13 13 13 13 13 13 13 13 13 13 13 14 13 13 14 13 13 13 12 12 12 12 12 12 12 12 13 13 13 13 13 13 14 14 15 16 16 16 16 16 16 15 15 16 17 17 17 17 17 17 17 17 16 15 16 16 16 15 15 15
4 4 4 5 5 6 7 9 9 8 8 8 8 8 9 9 10 10 10 10 10 10 10 11 12 13 13 13 13 13 13 13 13 13 13 14 14 14 14 14 15 15 15 14 14 14 14 13 13 13 13 13 13 13 13 13 13 13 14 14 15 15 16 16 16 16 16 15 15 15 16 17 17 17 16 16 16 16 16 16 17 17 17 17 18 17
4 4 4 4 4 5 6 8 8 7 7 8 8 9 9 9 9 9 9 9 9 9 9 10 10 11 12 13 13 13 13 13 13 13 13 14 14 15 15 16 16 16 16 16 16 15 15 14 14 14 14 14 14 14 13 13 13 13 14 14 15 15 15 16 16 16 16 16 15 15 15 16 17 17 16 16 15 16 16 16 17 17 18 18 18 18
4 4 5 5 5 6 7 8 8 7 7 8 9 9 9 9 9 9 9 9 9 9 9 9 9 10 11 12 12 13 13 14 14 14 14 14 15 15 16 16 16 16 16 16 16 16 15 15 15 15 15 15 15 15 15 15 14 14 14 15 15 16 16 16 16 16 16 16 16 16 16 16 16 17 17 16 16 17 16 16 16 17 17 18 18 18
6 7 7 6 6 7 8 8 8 7 8 9 9 8 9 9 9 9 8 9 9 9 9 9 9 10 10 11 12 12 13 13 14 14 15 15 15 16 16 16 16 16 17 17 17 16 16 17 17 16 16 16 16 16 16 16 16 16 16 16 16 17 17 17 17 17 16 16 16 16 16 17 17 17 17 17 18 18 18 18 18 17 17 18 18 18
Wind_Direction
208 209 212 211 210 208 205 204 206 206 201 196 200 203 201 201 206 206 201 201 202 196 195 196 190 188 192 188 188 195 194 187 181 179 180 182 182 179 179 178 175 175 174 169 166 166 163 158 155 152 150 149 148 148 148 147 146 145 146 146 145 145 144 143 143 142 142 143 141 140 140 140 139 137 136 137 138 140 141 142 141 140 138 137 137 136
207 208 212 211 209 207 206 205 205 204 200 197 202 202 202 207 209 209 204 204 207 202 197 194 189 192 193 192 195 197 193 189 184 182 182 183 183 181 181 180 179 180 176 169 167 168 166 162 158 155 153 152 151 151 151 151 150 150 149 149 148 147 147 146 145 144 144 144 142 141 141 142 142 141 139 139 140 141 142 143 144 143 142 141 140 138
209 211 213 211 208 207 206 205 204 204 201 200 205 203 207 210 204 207 209 208 208 206 200 194 193 195 194 195 199 198 195 191 187 185 183 183 184 183 182 182 182 182 177 171 168 168 168 165 161 158 155 156 156 154 154 154 153 152 151 150 150 149 149 149 147 146 146 145 144 142 142 143 143 144 144 142 141 143 144 145 145 146 145 145 144 141
210 212 212 209 205 204 206 207 205 205 205 205 206 206 210 208 206 209 209 207 205 205 201 194 196 198 195 198 200 199 199 190 187 189 187 185 185 185 185 184 185 183 178 174 171 171 171 168 165 162 159 159 158 155 155 155 154 154 153 152 151 151 151 150 149 148 147 147 146 144 144 144 144 145 146 144 144 145 146 146 147 148 148 147 147 145
209 208 205 206 203 200 203 205 202 204 208 209 209 210 210 208 211 207 197 198 197 204 203 192 195 200 198 200 199 200 201 191 187 189 190 190 188 186 187 187 186 184 181 176 175 174 172 169 167 166 163 162 161 158 157 157 156 156 156 155 154 153 152 152 151 150 149 149 148 147 146 147 147 147 147 148 148 148 148 149 150 151 150 150 150 148
210 206 200 203 204 200 202 204 202 203 207 210 212 211 205 203 203 187 184 192 194 205 207 196 197 201 198 200 199 199 200 195 192 191 191 193 191 187 187 188 187 185 184 180 178 176 174 171 169 168 167 166 165 163 160 159 158 158 158 157 157 156 154 155 154 152 152 152 151 151 151 151 151 151 152 152 152 152 152 152 152 154 154 153 153 151
205 201 198 202 204 201 203 205 203 202 202 209 212 205 199 196 191 184 187 195 198 202 206 202 201 199 199 202 201 200 201 200 199 195 192 194 193 190 189 189 188 186 186 184 181 179 176 174 172 170 170 169 169 167 164 163 161 160 159 158 159 159 158 158 157 156 156 156 155 156 156 155 155 155 156 156 154 154 154 154 154 155 156 156 154 152
201 199 198 203 204 202 204 205 204 203 204 211 207 194 192 193 191 192 194 201 202 197 198 205 205 201 204 205 201 200 203 204 203 199 195 195 194 193 191 191 189 188 188 186 184 182 179 177 175 173 173 173 173 171 168 167 166 163 161 160 161 161 161 162 162 161 160 160 159 161 162 161 160 160 160 159 158 157 156 156 157 156 156 156 155 154
199 200 199 201 203 202 202 201 199 199 205 210 200 189 192 193 193 196 198 204 204 197 199 206 204 205 210 207 201 201 205 206 205 203 199 196 196 195 194 193 190 190 191 189 187 184 181 180 178 176 175 175 176 174 172 171 169 167 164 163 163 164 165 166 166 165 165 165 164 165 167 167 166 165 164 163 162 161 160 159 159 158 157 157 157 156
201 203 199 196 199 201 200 198 194 193 199 200 186 180 186 187 192 198 201 205 204 205 208 206 202 204 212 210 205 205 208 206 205 204 201 199 197 196 195 194 192 192 193 192 190 186 183 182 180 179 177 178 179 177 176 174 171 170 168 166 166 168 169 169 169 169 170 171 170 170 171 172 171 170 169 168 167 167 166 163 161 161 160 160 160 159
206 207 202 196 198 198 195 192 188 185 185 182 177 175 178 185 193 198 207 206 204 214 218 211 207 207 212 212 210 210 209 204 203 204 203 200 199 197 197 195 192 193 193 192 192 188 186 185 183 181 180 180 181 180 180 178 175 173 171 171 171 171 172 172 172 172 172 173 174 174 175 175 175 174 173 171 171 172 171 168 167 166 165 164 164 162
205 204 200 197 195 190 188 186 180 179 178 177 181 180 175 187 197 199 211 208 204 215 218 215 212 211 216 215 212 213 210 206 205 205 203 201 200 198 197 196 193 193 194 193 192 190 187 187 184 183 182 182 183 183 183 182 179 176 175 175 175 174 174 174 174 175 175 175 176 176 178 179 179 178 177 176 175 176 176 174 173 171 171 169 167 164
201 197 196 197 190 182 182 182 179 182 185 183 185 183 180 194 204 207 214 211 209 212 215 216 211 213 222 220 211 212 210 208 208 207 204 201 201 200 198 197 195 194 194 193 193 191 189 188 186 185 184 183 184 185 185 184 182 180 179 179 179 178 177 177 176 177 178 178 178 179 180 181 181 182 182 181 180 181 181 179 177 175 176 175 171 169
200 199 200 196 188 182 181 182 183 186 188 187 186 188 190 194 200 211 215 213 213 213 217 215 206 212 228 224 213 211 210 209 207 207 206 203 202 201 200 200 197 195 196 195 194 193 191 189 187 186 187 186 186 187 187 186 184 183 182 182 182 181 181 180 179 179 180 181 182 183 184 183 184 185 185 185 185 185 184 183 181 179 179 179 177 175
194 198 202 194 189 189 187 188 190 188 189 191 191 193 198 197 197 206 209 206 206 208 212 211 208 212 220 221 216 211 209 209 207 206 205 203 204 204 203 202 200 197 197 197 196 195 192 190 188 187 188 188 188 188 189 188 186 186 186 185 185 184 184 183 182 182 183 184 185 187 186 186 187 188 188 188 187 188 187 187 185 183 183 184 183 181
189 199 200 192 192 193 190 191 190 185 189 196 194 197 206 206 197 195 201 199 195 201 209 210 217 219 215 218 216 209 206 204 202 201 201 201 203 205 205 204 202 199 198 198 197 195 194 191 190 190 189 189 190 190 190 190 189 189 189 188 188 188 187 186 186 186 186 186 186 187 187 188 190 189 189 189 189 190 190 190 189 189 189 189 188 188
189 199 195 190 197 195 190 189 186 184 190 197 198 203 209 206 196 189 199 202 194 201 210 211 222 227 222 224 214 203 203 199 197 198 200 200 200 202 204 204 203 200 198 198 197 196 195 193 192 192 191 192 192 191 192 192 192 192 192 191 191 191 190 190 189 189 189 188 188 188 187 189 191 189 189 190 190 191 192 192 192 193 194 193 192 192
185 199 199 194 197 196 191 189 190 192 189 190 202 207 201 201 202 193 197 204 203 206 209 214 224 223 219 222 211 202 203 203 200 200 201 201 200 200 201 202 202 200 199 198 197 196 196 195 194 193 194 194 194 194 194 194 194 194 194 194 193 194 194 193 192 192 192 191 192 191 190 191 192 191 191 192 192 192 193 195 195 196 197 197 196 196
182 198 205 195 192 197 196 191 197 204 195 189 200 201 193 198 203 195 195 202 205 209 212 220 228 225 221 219 212 206 207 210 208 203 201 201 200 200 200 200 201 201 199 198 198 199 197 197 197 195 195 196 196 195 195 195 196 196 197 197 196 196 197 196 196 196 196 195 195 195 193 194 194 194 195 196 196 195 196 198 198 198 199 199 199 199
188 192 201 199 192 193 191 188 196 204 199 196 197 196 199 204 201 197 201 201 199 205 215 221 230 234 230 220 211 208 209 212 211 205 200 198 198 199 200 201 201 201 201 199 200 201 199 199 200 198 197 198 197 197 196 196 197 198 199 199 198 198 199 199 199 199 199 199 199 198 197 198 198 198 199 199 198 199 200 201 200 200 201 201 202 201
190 188 197 202 189 182 183 189 196 197 197 198 197 199 204 206 201 200 205 205 199 201 208 213 228 240 235 219 210 207 204 205 204 199 196 195 197 200 201 202 202 202 203 202 202 202 200 201 202 200 199 199 199 199 198 198 199 200 202 201 201 201 201 201 202 202 203 203 202 202 201 202 202 202 202 202 202 203 203 204 203 203 204 204 204 203
186 183 185 188 184 183 189 197 195 193 196 197 198 203 201 198 197 197 207 213 205 200 201 203 223 240 234 215 208 203 195 186 184 187 190 192 196 200 201 202 203 203 205 205 204 203 202 201 202 201 201 200 200 200 200 200 201 202 204 204 204 204 204 204 204 204 205 206 206 206 205 205 205 205 206 206 207 207 207 208 207 207 207 207 207 206
188 181 174 180 187 190 199 203 192 192 199 200 202 206 200 200 201 195 205 212 202 200 205 204 222 237 231 211 201 198 192 180 172 176 184 191 197 202 204 203 203 205 206 206 205 204 202 202 202 202 202 202 201 200 201 201 202 203 206 207 206 206 207 207 206 206 207 208 209 209 209 209 208 208 209 210 210 210 210 210 210 209 209 209 209 209
186 180 176 188 195 192 198 198 186 188 197 202 209 211 204 208 209 202 207 206 196 201 206 206 223 229 226 212 196 193 191 183 177 177 184 192 201 206 207 206 204 205 207 207 205 204 203 202 203 203 203 203 203 202 202 203 204 205 207 208 208 208 209 210 209 209 209 210 211 212 212 212 211 210 211 213 213 212 212 212 212 211 211 210 211 212
176 175 172 178 185 184 189 192 193 200 202 203 213 217 213 212 209 208 213 207 202 207 200 193 210 221 224 211 190 187 185 183 184 186 188 193 200 207 209 208 205 205 209 209 206 205 204 203 204 205 206 205 205 205 204 204 205 206 208 209 210 210 211 212 212 212 212 212 213 214 215 215 214 214 214 215 215 214 214 215 214 214 214 214 214 215
175 170 166 168 173 178 185 190 201 216 217 212 216 219 221 219 213 211 212 206 208 209 200 194 201 210 216 202 185 185 183 181 185 189 192 195 200 206 209 208 205 205 208 210 207 207 206 205 206 207 207 207 207 207 207 206 206 207 209 210 212 212 213 213 213 214 215 215 215 216 217 217 217 217 217 217 218 218 218 218 217 218 218 218 219 219
180 173 171 174 173 177 189 199 213 222 217 214 212 206 215 220 212 207 208 209 208 204 205 211 205 194 197 191 182 183 181 181 185 187 190 195 200 203 206 206 203 202 205 208 208 207 208 208 209 209 208 208 208 208 208 208 208 208 209 211 213 214 214 214 214 215 216 217 217 218 218 218 219 220 220 220 221 221 221 221 221 222 223 222 222 223
183 182 184 183 177 179 198 212 221 204 182 180 187 184 188 206 201 198 205 208 204 199 206 217 205 186 192 192 185 185 182 182 184 185 189 193 196 197 197 197 198 199 204 208 208 207 208 210 213 213 211 210 210 210 209 209 209 209 210 212 214 214 214 214 215 215 217 217 218 220 220 220 221 223 223 224 224 224 223 224 225 226 226 226 226 226
182 187 195 188 178 172 178 178 169 164 159 157 167 173 177 192 194 193 197 197 193 193 199 200 184 177 190 194 190 193 189 179 179 184 189 192 195 193 186 184 190 196 202 205 207 209 210 210 212 216 217 213 210 210 210 209 211 212 212 213 213 214 214 214 215 216 216 217 219 221 222 222 223 225 225 226 226 226 227 228 228 229 229 229 230 230
182 189 199 187 176 164 128 134 152 163 162 152 153 170 176 180 186 188 187 185 182 182 186 185 177 177 193 198 189 186 181 173 172 175 179 184 193 196 190 186 191 198 203 206 209 212 214 213 212 215 219 217 213 210 209 210 211 213 213 213 214 214 214 214 216 217 217 218 220 221 223 224 224 225 226 226 228 229 230 230 231 232 233 233 233 233
189 195 201 185 176 177 165 147 149 152 150 146 149 170 175 174 178 181 184 190 189 183 184 186 183 190 207 209 190 180 178 177 179 177 176 184 194 200 202 199 198 202 205 208 213 215 215 215 214 214 215 217 215 212 211 211 212 213 214 214 215 215 216 216 217 218 219 220 222 223 224 226 226 226 227 228 229 230 231 232 233 234 235 235 235 236
202 206 206 190 181 191 192 175 165 157 148 144 147 162 168 171 176 177 178 187 191 187 187 189 191 202 215 212 196 186 180 180 192 196 191 193 198 202 207 208 207 208 208 209 214 218 218 217 215 214 212 213 215 215 214 213 213 214 215 216 216 216 217 218 219 220 221 222 224 225 226 227 228 228 228 229 231 232 232 233 234 234 235 235 236 237
209 210 209 197 195 207 204 196 193 183 173 176 187 193 188 175 175 180 179 182 191 194 195 196 200 208 215 211 200 196 192 192 206 213 206 204 205 207 210 211 210 213 214 215 219 221 221 219 217 214 212 211 213 216 216 216 215 215 217 218 218 217 217 219 220 222 223 224 226 227 228 229 230 230 231 232 233 234 234 234 235 236 237 237 237 237
215 209 208 203 206 213 205 198 198 190 189 200 203 203 203 182 167 176 186 191 196 197 196 197 201 207 214 215 206 198 194 194 202 210 210 208 207 208 212 213 213 218 221 221 223 224 223 220 217 214 211 210 212 215 216 216 216 215 217 220 220 218 217 218 221 224 226 226 227 229 230 231 231 232 234 236 236 236 236 236 237 238 238 239 238 237
220 214 212 209 209 211 203 197 197 189 187 189 187 192 202 194 174 174 185 194 196 195 195 196 198 201 204 207 203 195 191 189 193 204 210 212 211 207 204 206 211 218 222 222 225 226 223 220 216 213 210 209 211 213 214 215 216 216 218 221 223 222 222 222 223 225 228 229 230 231 231 232 232 233 235 237 238 239 239 240 239 240 240 240 239 238
215 215 214 212 212 212 207 201 195 191 190 186 181 185 199 207 202 192 192 201 206 205 203 202 203 203 202 202 198 192 192 192 198 213 218 218 219 215 209 209 212 215 217 220 223 222 219 215 212 211 209 209 211 215 216 217 219 218 220 223 226 227 228 228 228 230 232 233 234 234 232 232 234 236 236 236 238 240 241 242 241 242 242 242 241 240
206 207 210 212 213 208 202 195 189 191 197 198 195 200 209 214 212 201 196 207 217 217 212 210 212 215 215 213 207 204 209 213 223 235 231 224 223 221 218 219 221 219 216 217 215 212 210 206 202 203 205 208 213 218 220 221 222 222 223 226 228 229 231 233 234 236 238 237 236 235 233 234 238 239 237 235 237 239 241 242 243 242 242 242 242 242
202 201 199 203 209 202 193 191 195 201 208 208 209 218 225 221 216 208 202 212 221 224 220 215 215 220 224 224 222 223 228 230 232 235 232 227 226 222 218 221 227 228 224 217 208 201 198 194 193 195 199 203 211 217 218 219 220 221 223 224 225 226 230 234 236 239 240 240 238 236 235 238 240 240 237 236 238 241 242 243 243 242 242 242 242 243
211 205 195 197 205 202 194 196 202 206 210 212 217 226 234 233 225 217 214 219 223 226 222 218 218 221 224 227 228 228 228 228 230 231 230 229 229 225 221 224 227 228 228 223 213 205 199 195 195 198 201 204 210 214 214 215 216 219 222 224 224 228 233 236 238 239 240 240 240 238 238 239 240 239 238 239 242 243 243 243 243 242 241 241 242 243
216 207 200 200 205 203 199 202 207 208 211 216 222 229 239 240 225 214 219 227 227 227 224 220 221 224 226 227 227 224 222 223 226 229 226 222 221 219 217 218 217 214 216 217 214 209 207 204 203 205 207 211 214 216 218 220 222 225 229 231 233 237 241 242 242 242 242 240 238 237 236 236 238 239 241 243 244 244 243 243 242 242 241 241 242 243
216 207 201 199 202 203 199 202 209 213 214 219 226 232 238 237 223 216 222 225 223 222 223 222 222 224 225 226 224 222 222 220 219 222 222 217 216 216 213 212 211 210 211 211 209 207 208 209 209 209 211 213 216 220 224 227 229 231 233 236 238 240 243 244 243 243 241 238 234 233 234 235 238 241 243 246 247 245 242 241 241 242 242 242 242 243
214 213 209 201 200 202 199 199 207 213 217 225 232 234 233 228 224 224 224 220 216 215 218 222 224 222 219 218 216 216 217 216 217 221 224 223 221 220 218 215 213 210 208 206 207 208 211 213 213 211 213 218 222 224 224 224 226 229 230 233 235 236 238 240 240 239 238 237 236 237 238 240 243 244 245 247 248 246 242 239 239 241 242 243 244 245
204 207 215 211 204 201 200 202 207 213 222 232 233 230 230 225 221 221 219 217 216 216 217 220 222 219 214 212 214 216 217 218 220 224 228 230 227 224 223 223 219 215 212 210 210 212 214 214 214 215 221 227 228 224 221 222 225 229 229 230 231 232 233 235 237 237 236 237 239 240 241 242 242 242 244 246 245 244 243 240 240 241 243 243 244 244
210 206 211 215 211 206 207 211 212 215 225 232 225 220 222 219 214 213 213 216 219 219 219 219 218 216 214 212 214 218 220 221 223 226 229 230 228 226 226 226 223 220 220 220 221 223 224 222 221 222 226 228 226 222 222 225 228 231 233 234 234 235 237 238 241 242 241 241 242 242 240 239 237 237 240 243 242 241 242 242 242 243 242 241 241 240
222 207 203 212 214 209 208 211 210 211 220 225 218 216 215 212 211 210 211 215 219 220 220 219 217 217 216 215 217 220 222 224 226 228 229 229 228 228 228 226 224 223 223 225 227 229 231 229 228 227 228 229 228 227 230 233 234 236 239 241 242 243 243 243 245 247 247 246 245 244 243 243 242 242 245 246 244 243 243 245 245 242 239 237 238 239
211 199 200 209 209 204 203 205 204 204 209 214 215 214 213 212 213 213 213 217 221 223 223 222 220 219 219 220 222 224 226 228 229 231 232 230 230 231 230 227 226 226 225 225 227 230 232 232 232 232 232 232 233 234 238 242 244 245 247 248 250 252 252 250 250 251 251 251 250 248 248 249 249 250 251 251 249 248 248 249 247 243 240 240 242 244
218 209 206 206 206 206 208 208 206 203 205 209 211 211 211 212 214 215 215 219 222 223 224 223 221 222 224 224 224 224 226 228 229 231 232 230 231 233 231 228 227 228 229 230 231 233 235 236 237 238 237 238 240 242 243 246 249 251 251 252 253 254 254 255 255 254 253 254 253 252 251 250 250 250 251 251 249 248 249 250 247 246 246 247 248 249
218 203 201 206 210 212 210 205 199 195 199 205 208 210 210 209 211 213 215 218 222 223 225 224 223 224 226 227 226 224 225 227 228 229 232 233 234 235 233 232 231 232 233 234 235 237 240 240 240 241 242 243 245 247 248 249 251 253 254 254 254 253 252 253 254 253 252 252 252 252 251 249 248 249 250 249 247 247 248 249 248 249 250 252 252 253
209 201 209 207 201 204 206 200 191 191 204 209 209 212 214 211 210 212 214 217 221 223 225 226 227 227 226 227 227 227 226 227 228 230 235 239 239 238 235 235 235 234 233 234 236 240 243 244 244 244 245 246 247 249 250 250 250 252 254 255 254 253 251 251 250 250 251 252 252 250 248 247 247 246 245 244 245 247 249 250 251 252 252 254 256 255
220 218 219 204 199 212 216 206 196 200 213 215 211 214 218 217 215 215 215 217 220 223 225 226 229 231 230 229 230 230 230 230 230 231 236 239 240 239 238 237 236 235 233 234 237 242 245 246 246 247 248 248 249 250 250 250 250 252 253 254 253 252 252 252 249 248 249 251 250 249 248 248 247 245 244 244 245 248 250 252 253 254 254 254 256 256
221 215 213 209 215 222 214 203 197 197 204 209 208 210 217 219 217 218 220 220 221 224 226 227 230 232 233 233 232 233 234 234 234 234 236 238 239 240 241 241 239 237 236 238 241 244 246 246 247 249 249 249 250 250 250 250 251 253 254 254 253 252 252 252 251 249 250 250 249 248 249 249 248 247 247 248 249 250 251 252 253 254 255 256 256 256